sat.trackr.live / text

‹ back to catalog

STARLINK-37979

NORAD 69689 · 2026-145N

PAYLOAD ACTIVE UNKNOWN

§ Identity

Operator
Country
US
Launch date
2026-06-25
Launch site
AFWTR
Launch vehicle
Mass (kg)
RCS (m²)

Purposes: comms

External: N2YO · Heavens-Above · Gunter

§ Orbital elements

Epoch: 2026-09-20T01:00:00.244800Z

Period
93.91 min
Inclination
97.2840°
Eccentricity
0.0003132
Mean motion
15.33446779 rev/d
Perigee alt
463.4 km
Apogee alt
467.7 km
Semi-major
6,843.7 km
B*
4.1771e-4
RAAN
109.7231°
Arg perigee
67.9527°
Mean anomaly
292.2048°
Rev number
1,347

§ Raw data

STARLINK-379791 69689U 26145N   26263.04166950  .00013436  00000+0  41771-3 0  99952 69689  97.2840 109.7231 0003132  67.9527 292.2048 15.33446779 13479

JSON: /api/v1/satellites/69689 · /tle

For live sub-satellite position, see the globe view (requires WebGL).

§ Visibility from observer

Set your observer location to see the next 7 days of passes ≥ 10°. The values pass through the URL so the page stays shareable.

No JS? Fill the form by hand. The geolocation button needs JavaScript.